Location: Chuathbaluk
(61.5726°N, 159.2454°W)
Time: 17:20:57
(UTC+00:00)

NOAA 15 - Pass Details

Date: 18 January 2021
Orbit: 798 x 812 km, 98.7° (Epoch: 05 March)

Event Time Altitude Azimuth Distance (km) Brightness Sun altitude
Rises 06:59:09 0° 220° (SW) 3,306 8.0 -33.4°
Reaches altitude 10° 07:02:28 10° 243° (WSW) 2,383 7.5 -33.7°
Maximum altitude 07:05:34 16° 279° (W) 2,021 7.3 -34.1°
Drops below altitude 10° 07:08:42 10° 316° (NW) 2,398 7.7 -34.4°
Sets 07:12:04 0° 338° (NNW) 3,337 8.4 -34.8°
